星链-4574 (STARLINK-4574 )

导读 | 星芒AI

STARLINK-4574 是 SpaceX Starlink 卫星互联网项目中的一颗低轨卫星,属于“星链”计划的组成部分。该卫星由 SpaceX 制造并发射,旨在为全球用户提供高速互联网服务。它运行在近地轨道,与其他星链卫星协同工作,构建全球通信网络。STARLINK-4574 的部署有助于提升网络覆盖范围和连接稳定性,特别是在偏远和网络基础设施薄弱的地区。该项目对全球通信、科研及商业应用具有重要意义。

基本信息
目录编号:
53733
目录名称:
STARLINK-4574
国际标识:
2022-107AK
轨道中心:
EARTH
卫星名称:
星链-4574
卫星全名:
星链-4574 (STARLINK-4574 )
卫星状态:
在轨 (已飞行1152 天)
发射日期:
2022-09-05 UTC
国别 :
美国 (US)
星等 :
--
轨道信息
数据来源 国际轨道数据 AOE轨道数据
星历时间 2025-10-31T13:05:30+0800
8小时前
查看轨道信息
2025-10-30T16:00:00+0800
1天前
查看轨道信息
半长轴 6917.878km 6917.884km
偏心率 0.0001335 0.0001388
轨道倾角 53.215° 53.215°
近地点辐角 86.443° 84.219°
升交点赤经 115.597° 119.542°
平近点角 273.671° 179.705°
近地点 538.819km 538.788km
远地点 540.667km 540.71km
周期 95.437分钟 95.438分钟
每日圈数 15.08841 15.088391
详细信息
固有亮度:
5
最大亮度:
2.5
卫星平台:
Starlink v1.5
覆盖范围:
全球
运营商:
太空探索技术公司
运营商所在国:
美国
制造商(研发单位):
太空探索技术公司
制造商所在国:
美国
使用方式:
暂无
卫星简介
星链(Starlink)计划是由太空探索技术公司(SpaceX)提出的一个巨型低轨卫星互联网星座项目,计划在2019年至2024年间在太空搭建由约1.2万颗卫星组成的“星链”网络,其中1584颗将部署在地球上空550千米处的近地轨道,并从2020年开始工作。该卫星仍在工作。
2D轨道图
3D轨道图
轨道高度分析图
轨道倾角分析图
轨道综合分析图
查看轨道综合分析图